Location: Grand Lay
(47.3253°N, 0.9468°E)
Time: 16:11:08
(UTC+00:00)

Okean 1-7 - Pass Details

Date: 18 January 2026
Orbit: 566 x 588 km, 82.5° (Epoch: 10 February)

Event Time Altitude Azimuth Distance (km) Brightness Sun altitude
Exits shadow 06:27:45 - 344° (NNW) 2,695 6.0 -11.5°
Reaches altitude 10° 06:29:47 10° 339° (NNW) 1,884 5.2 -11.2°
Maximum altitude 06:33:44 44° 267° (W) 800 3.2 -10.5°
Drops below altitude 10° 06:37:41 10° 195° (SSW) 1,882 5.6 -9.9°
Sets 06:39:56 0° 189° (S) 2,779 6.6 -9.5°
